IZ3ZOD-13 Weather Reports


Display with metric or nautical units.
time (UTC)temp
F
wind
direction
speed
MPH
gust
MPH
rain 1hr
in
rain 24hr
in
rain mn
in
humidity
%
barometer
mb
20260902063203 76 307 1.0 2.0 0.00 0.00 0.00 69 1018.8
20260902062803 75 305 1.0 3.0 0.00 0.00 0.00 69 1018.9
20260902062403 75 292 1.0 3.0 0.00 0.00 0.00 70 1018.8
20260902062003 75 292 0.0 2.0 0.00 0.00 0.00 69 1018.7
20260902061603 74 293 0.0 2.0 0.00 0.00 0.00 71 1018.7
20260902061203 74 335 0.0 1.0 0.00 0.00 0.00 71 1018.9
20260902060803 74 332 0.0 1.0 0.00 0.00 0.00 71 1018.7
20260902060403 73 332 0.0 1.0 0.00 0.00 0.00 72 1018.6
20260902060003 73 333 0.0 2.0 0.00 0.00 0.00 73 1018.7
20260902055603 72 336 0.0 2.0 0.00 0.00 0.00 74 1018.6
20260902055203 72 0 0.0 0.0 0.00 0.00 0.00 76 1018.6
20260902054803 71 0 0.0 0.0 0.00 0.00 0.00 76 1018.5
20260902054403 70 0 0.0 0.0 0.00 0.00 0.00 77 1018.4
20260902054003 69 0 0.0 0.0 0.00 0.00 0.00 80 1018.4
20260902053603 69 0 0.0 0.0 0.00 0.00 0.00 80 1018.5
20260902053203 69 0 0.0 0.0 0.00 0.00 0.00 80 1018.5
20260902052803 69 0 0.0 0.0 0.00 0.00 0.00 80 1018.5
20260902052403 68 0 0.0 0.0 0.00 0.00 0.00 80 1018.4
20260902052003 68 0 0.0 0.0 0.00 0.00 0.00 81 1018.5
20260902051603 68 0 0.0 0.0 0.00 0.00 0.00 81 1018.3
20260902051203 67 0 0.0 0.0 0.00 0.00 0.00 81 1018.4
20260902050803 67 0 0.0 0.0 0.00 0.00 0.00 82 1018.4
20260902050403 67 0 0.0 0.0 0.00 0.00 0.00 82 1018.2
20260902050005 67 297 0.0 1.0 0.00 0.00 0.00 82 1018.4
20260902045603 67 292 0.0 2.0 0.00 0.00 0.00 82 1018.2
20260902045415 67 291 0.0 2.0 0.00 0.00 0.00 81 1018.4
20260902044803 67 287 0.0 1.0 0.00 0.00 0.00 82 1018.3
20260902044403 67 286 0.0 1.0 0.00 0.00 0.00 82 1018.4
20260902044213 67 286 0.0 1.0 0.00 0.00 0.00 82 1018.4
20260902043817 67 0 0.0 0.0 0.00 0.00 0.00 82 1018.4
20260902043203 67 0 0.0 0.0 0.00 0.00 0.00 82 1018.3
20260902043016 67 0 0.0 0.0 0.00 0.00 0.00 82 1018.2
20260902042403 67 0 0.0 0.0 0.00 0.00 0.00 83 1018.2
20260902042003 66 0 0.0 0.0 0.00 0.00 0.00 83 1018.2
20260902041603 66 0 0.0 0.0 0.00 0.00 0.00 83 1018.1
20260902041203 66 0 0.0 0.0 0.00 0.00 0.00 84 1018.2
20260902040803 66 0 0.0 0.0 0.00 0.00 0.00 85 1018.2
20260902040403 65 0 0.0 0.0 0.00 0.00 0.00 86 1018.4
20260902040003 66 0 0.0 0.0 0.00 0.00 0.00 86 1018.3
20260902035816 66 0 0.0 0.0 0.00 0.00 0.00 85 1018.4
20260902035203 66 0 0.0 0.0 0.00 0.00 0.00 85 1018.3
20260902034803 66 0 0.0 0.0 0.00 0.00 0.00 86 1018.1
20260902034614 66 0 0.0 0.0 0.00 0.00 0.00 85 1018.2
20260902034003 66 0 0.0 0.0 0.00 0.00 0.00 84 1018.2
20260902033603 66 0 0.0 0.0 0.00 0.00 0.00 84 1018.2
20260902033203 66 0 0.0 0.0 0.00 0.00 0.00 84 1018.2
20260902033017 66 0 0.0 0.0 0.00 0.00 0.00 85 1018.1
20260902032616 66 0 0.0 0.0 0.00 0.00 0.00 85 1018.2
20260902032003 66 0 0.0 0.0 0.00 0.00 0.00 85 1018.2
20260902031603 66 0 0.0 0.0 0.00 0.00 0.00 85 1018.3
20260902031203 66 0 0.0 0.0 0.00 0.00 0.00 85 1018.2
20260902030803 66 0 0.0 0.0 0.00 0.00 0.00 85 1018.1
20260902030404 66 0 0.0 0.0 0.00 0.00 0.00 85 1018.3
20260902030003 66 0 0.0 0.0 0.00 0.00 0.00 85 1018.2
20260902025603 66 0 0.0 0.0 0.00 0.00 0.00 85 1018.0
20260902025203 66 0 0.0 0.0 0.00 0.00 0.00 85 1018.1
20260902024803 66 0 0.0 0.0 0.00 0.00 0.00 85 1018.2
20260902024615 66 0 0.0 0.0 0.00 0.00 0.00 85 1018.0
20260902024214 66 0 0.0 0.0 0.00 0.00 0.00 85 1018.2
20260902023814 66 0 0.0 0.0 0.00 0.00 0.00 85 1018.1
20260902023203 67 0 0.0 0.0 0.00 0.00 0.00 85 1018.2
20260902023012 67 0 0.0 0.0 0.00 0.00 0.00 84 1018.3
20260902022403 67 285 0.0 1.0 0.00 0.00 0.00 84 1018.1
20260902022003 67 285 0.0 1.0 0.00 0.00 0.00 84 1018.1
20260902021603 67 285 0.0 2.0 0.00 0.00 0.00 84 1018.0
20260902021203 67 278 0.0 2.0 0.00 0.00 0.00 84 1018.2
20260902021014 67 277 0.0 2.0 0.00 0.00 0.00 84 1018.3
20260902020403 67 274 0.0 2.0 0.00 0.00 0.00 84 1018.1
20260902020003 67 274 0.0 1.0 0.00 0.00 0.00 85 1018.2
20260902015603 67 274 0.0 1.0 0.00 0.00 0.00 85 1018.3
20260902015203 67 274 0.0 1.0 0.00 0.00 0.00 85 1018.1
20260902014803 67 274 0.0 1.0 0.00 0.00 0.00 84 1018.1
20260902014403 67 274 0.0 1.0 0.00 0.00 0.00 84 1018.1
20260902014003 67 274 0.0 1.0 0.00 0.00 0.00 84 1018.2
20260902013603 67 274 0.0 1.0 0.00 0.00 0.00 84 1018.1
20260902013203 67 274 0.0 1.0 0.00 0.00 0.00 83 1018.1
20260902012803 67 274 0.0 1.0 0.00 0.00 0.00 83 1018.3
20260902012403 67 274 0.0 2.0 0.00 0.00 0.00 83 1018.3
20260902012003 67 277 1.0 2.0 0.00 0.00 0.00 83 1018.1
20260902011603 67 279 0.0 2.0 0.00 0.00 0.00 83 1018.2
20260902011203 67 282 0.0 1.0 0.00 0.00 0.00 84 1018.1
20260902010803 67 282 0.0 1.0 0.00 0.00 0.00 84 1018.3
20260902010614 67 282 0.0 1.0 0.00 0.00 0.00 84 1018.2
20260902010003 67 0 0.0 0.0 0.00 0.00 0.00 84 1018.3
20260902005813 67 0 0.0 0.0 0.00 0.00 0.00 83 1018.1
20260902005203 67 283 0.0 1.0 0.00 0.00 0.00 83 1018.3
20260902005017 67 283 0.0 1.0 0.00 0.00 0.00 83 1018.2
20260902004403 67 283 0.0 1.0 0.00 0.00 0.00 82 1018.3
20260902004216 67 283 0.0 1.0 0.00 0.00 0.00 82 1018.4
20260902003603 67 282 0.0 1.0 0.00 0.00 0.00 82 1018.4
20260902003414 67 282 0.0 1.0 0.00 0.00 0.00 82 1018.3
20260902002803 67 0 0.0 0.0 0.00 0.00 0.00 82 1018.2
20260902002403 67 0 0.0 0.0 0.00 0.00 0.00 82 1018.3
20260902002003 67 0 0.0 0.0 0.00 0.00 0.00 82 1018.4
20260902001603 67 0 0.0 0.0 0.00 0.00 0.00 82 1018.4
20260902001203 68 0 0.0 0.0 0.00 0.00 0.00 81 1018.3
20260902000803 68 283 0.0 1.0 0.00 0.00 0.00 81 1018.3
20260902000615 68 283 0.0 1.0 0.00 0.00 0.00 81 1018.2
20260902000003 68 0 0.0 0.0 0.00 0.00 0.00 81 1018.4
20260901235603 68 283 0.0 1.0 0.00 0.00 0.00 80 1018.3
20260901235203 68 283 0.0 1.0 0.00 0.00 0.00 80 1018.3
20260901234803 68 283 0.0 2.0 0.00 0.00 0.00 79 1018.4
20260901234403 68 283 0.0 2.0 0.00 0.00 0.00 80 1018.3
20260901234003 68 284 0.0 2.0 0.00 0.00 0.00 81 1018.2
20260901233603 67 0 0.0 0.0 0.00 0.00 0.00 83 1018.5
20260901233203 67 0 0.0 0.0 0.00 0.00 0.00 84 1018.3
20260901232803 67 0 0.0 0.0 0.00 0.00 0.00 84 1018.2
20260901232403 67 0 0.0 0.0 0.00 0.00 0.00 84 1018.2
20260901232003 67 0 0.0 0.0 0.00 0.00 0.00 84 1018.3
20260901231604 67 0 0.0 0.0 0.00 0.00 0.00 83 1018.2
20260901231203 67 0 0.0 0.0 0.00 0.00 0.00 83 1018.1
20260901231016 68 0 0.0 0.0 0.00 0.00 0.00 83 1018.2
20260901230403 68 0 0.0 0.0 0.00 0.00 0.00 82 1018.1
20260901230004 68 0 0.0 0.0 0.00 0.00 0.00 82 1018.0
20260901225603 68 0 0.0 0.0 0.00 0.00 0.00 82 1018.3
20260901225203 68 0 0.0 0.0 0.00 0.00 0.00 82 1018.1
20260901224803 68 0 0.0 0.0 0.00 0.00 0.00 82 1018.1
20260901224612 68 0 0.0 0.0 0.00 0.00 0.00 82 1018.2
20260901224003 68 0 0.0 0.0 0.00 0.00 0.00 82 1018.2
20260901223603 68 0 0.0 0.0 0.00 0.00 0.00 82 1018.1
20260901223203 68 0 0.0 0.0 0.00 0.00 0.00 82 1018.1
20260901222803 68 0 0.0 0.0 0.00 0.00 0.00 82 1018.2
20260901222403 68 0 0.0 0.0 0.00 0.00 0.00 81 1018.3
20260901222003 69 0 0.0 0.0 0.00 0.00 0.00 81 1018.2
20260901221603 69 0 0.0 0.0 0.00 0.00 0.00 81 1018.3
20260901221203 69 0 0.0 0.0 0.00 0.00 0.00 81 1018.2
20260901220804 70 0 0.0 0.0 0.00 0.00 0.00 78 1018.2
20260901220616 70 0 0.0 0.0 0.00 0.00 0.00 77 1018.2
20260901220004 70 0 0.0 0.0 0.00 0.00 0.00 77 1018.2
20260901215603 70 0 0.0 0.0 0.00 0.00 0.00 77 1018.2
20260901215203 69 0 0.0 0.0 0.00 0.00 0.00 79 1018.3
20260901214403 70 0 0.0 0.0 0.00 0.00 0.00 79 1018.2
20260901214003 70 0 0.0 0.0 0.00 0.00 0.00 78 1018.4
20260901213603 70 0 0.0 0.0 0.00 0.00 0.00 78 1018.1
20260901213416 70 0 0.0 0.0 0.00 0.00 0.00 78 1018.3
20260901213016 69 0 0.0 0.0 0.00 0.00 0.00 79 1018.2
20260901212403 70 0 0.0 0.0 0.00 0.00 0.00 80 1018.4
20260901212214 70 0 0.0 0.0 0.00 0.00 0.00 78 1018.2
20260901211603 69 0 0.0 0.0 0.00 0.00 0.00 78 1018.1
20260901211203 69 0 0.0 0.0 0.00 0.00 0.00 78 1018.1
20260901210803 70 0 0.0 0.0 0.00 0.00 0.00 79 1018.1
20260901210403 70 0 0.0 0.0 0.00 0.00 0.00 79 1018.1
20260901210004 70 0 0.0 0.0 0.00 0.00 0.00 78 1018.3
20260901205603 70 0 0.0 0.0 0.00 0.00 0.00 78 1018.3
20260901205203 70 0 0.0 0.0 0.00 0.00 0.00 78 1018.2
20260901204803 70 0 0.0 0.0 0.00 0.00 0.00 78 1018.0
20260901204403 70 67 0.0 2.0 0.00 0.00 0.00 77 1018.0
20260901204003 70 71 0.0 2.0 0.00 0.00 0.00 78 1018.1
20260901203603 70 75 0.0 2.0 0.00 0.00 0.00 78 1018.2
20260901203203 70 86 0.0 2.0 0.00 0.00 0.00 79 1018.0
20260901202803 70 86 0.0 2.0 0.00 0.00 0.00 80 1017.9
20260901202403 70 0 0.0 0.0 0.00 0.00 0.00 81 1017.9
20260901202003 70 0 0.0 0.0 0.00 0.00 0.00 80 1017.9
20260901201603 70 0 0.0 0.0 0.00 0.00 0.00 80 1017.9
20260901201203 70 0 0.0 0.0 0.00 0.00 0.00 79 1018.0
20260901200803 71 0 0.0 0.0 0.00 0.00 0.00 79 1017.8
20260901200613 71 0 0.0 0.0 0.00 0.00 0.00 79 1017.8
20260901200003 71 0 0.0 0.0 0.00 0.00 0.00 77 1017.8
20260901195603 71 87 0.0 1.0 0.00 0.00 0.00 78 1017.8
20260901195419 71 87 0.0 1.0 0.00 0.00 0.00 78 1017.8
20260901195015 71 87 0.0 1.0 0.00 0.00 0.00 77 1018.0
20260901194403 72 87 0.0 1.0 0.00 0.00 0.00 76 1018.0
20260901194214 72 87 0.0 1.0 0.00 0.00 0.00 75 1018.0
20260901193603 72 0 0.0 0.0 0.00 0.00 0.00 73 1018.0
20260901193203 72 0 0.0 0.0 0.00 0.00 0.00 71 1017.9
20260901193017 72 0 0.0 0.0 0.00 0.00 0.00 75 1017.8
20260901192616 72 0 0.0 0.0 0.00 0.00 0.00 74 1017.9
20260901192003 73 0 0.0 0.0 0.00 0.00 0.00 73 1017.8
20260901191603 72 0 0.0 0.0 0.00 0.00 0.00 71 1017.6
20260901191203 72 0 0.0 0.0 0.00 0.00 0.00 72 1017.7
20260901190803 72 0 0.0 0.0 0.00 0.00 0.00 73 1017.6
20260901190403 72 0 0.0 0.0 0.00 0.00 0.00 75 1017.7
20260901190003 72 0 0.0 0.0 0.00 0.00 0.00 74 1017.4
20260901185603 72 0 0.0 0.0 0.00 0.00 0.00 75 1017.5
20260901185203 72 0 0.0 0.0 0.00 0.00 0.00 76 1017.5
20260901184803 72 0 0.0 0.0 0.00 0.00 0.00 73 1017.5
20260901184403 72 0 0.0 0.0 0.00 0.00 0.00 69 1017.5
20260901184003 73 0 0.0 0.0 0.00 0.00 0.00 68 1017.5
20260901183603 74 0 0.0 0.0 0.00 0.00 0.00 68 1017.5
20260901183203 74 0 0.0 0.0 0.00 0.00 0.00 69 1017.3
20260901182803 74 0 0.0 0.0 0.00 0.00 0.00 69 1017.6
20260901182403 74 0 0.0 0.0 0.00 0.00 0.00 68 1017.6
20260901182216 74 0 0.0 0.0 0.00 0.00 0.00 69 1017.4
20260901181603 75 0 0.0 0.0 0.00 0.00 0.00 65 1017.3
20260901181203 76 0 0.0 0.0 0.00 0.00 0.00 63 1017.5
20260901180803 76 0 0.0 0.0 0.00 0.00 0.00 59 1017.5
20260901180614 77 0 0.0 0.0 0.00 0.00 0.00 59 1017.4
20260901180003 78 0 0.0 0.0 0.00 0.00 0.00 57 1017.2
20260901175812 78 0 0.0 0.0 0.00 0.00 0.00 56 1017.1
20260901175203 79 0 0.0 0.0 0.00 0.00 0.00 54 1017.3
20260901174803 79 0 0.0 0.0 0.00 0.00 0.00 54 1017.1
20260901174403 79 0 0.0 0.0 0.00 0.00 0.00 54 1017.3
20260901174003 80 0 0.0 0.0 0.00 0.00 0.00 54 1017.3
20260901173603 80 88 0.0 1.0 0.00 0.00 0.00 54 1017.0
20260901173203 80 88 0.0 1.0 0.00 0.00 0.00 52 1017.1
20260901172803 81 88 0.0 1.0 0.00 0.00 0.00 52 1017.1
20260901172403 81 88 0.0 1.0 0.00 0.00 0.00 51 1017.0
20260901172003 82 77 0.0 2.0 0.00 0.00 0.00 50 1017.2
20260901171603 82 77 1.0 3.0 0.00 0.00 0.00 49 1017.0
20260901171203 82 81 1.0 3.0 0.00 0.00 0.00 49 1017.2
20260901170803 83 87 1.0 3.0 0.00 0.00 0.00 49 1017.1
20260901170403 83 84 1.0 3.0 0.00 0.00 0.00 48 1017.2
20260901170003 83 72 1.0 3.0 0.00 0.00 0.00 47 1017.1
20260901165603 84 70 2.0 3.0 0.00 0.00 0.00 46 1017.2
20260901165203 84 74 2.0 4.0 0.00 0.00 0.00 45 1017.2
20260901164803 84 82 2.0 4.0 0.00 0.00 0.00 47 1017.0
20260901164403 84 71 2.0 4.0 0.00 0.00 0.00 46 1017.3
20260901164003 84 64 2.0 6.0 0.00 0.00 0.00 46 1017.2
20260901163603 84 68 2.0 6.0 0.00 0.00 0.00 46 1017.2
20260901163203 85 72 2.0 6.0 0.00 0.00 0.00 46 1017.3
20260901162803 85 82 2.0 4.0 0.00 0.00 0.00 45 1017.2
20260901162403 85 72 2.0 4.0 0.00 0.00 0.00 45 1017.4
20260901162003 85 55 2.0 4.0 0.00 0.00 0.00 45 1017.3
20260901161603 85 52 2.0 4.0 0.00 0.00 0.00 45 1017.5
20260901161203 85 58 3.0 6.0 0.00 0.00 0.00 45 1017.3
20260901160803 85 70 3.0 6.0 0.00 0.00 0.00 44 1017.3
20260901160403 85 71 3.0 7.0 0.00 0.00 0.00 44 1017.5
20260901160003 85 62 3.0 7.0 0.00 0.00 0.00 45 1017.4
20260901155603 85 54 3.0 7.0 0.00 0.00 0.00 44 1017.4
20260901155203 85 52 3.0 6.0 0.00 0.00 0.00 46 1017.6
20260901154803 86 60 3.0 6.0 0.00 0.00 0.00 45 1017.4
20260901154617 86 63 3.0 4.0 0.00 0.00 0.00 46 1017.5
20260901154003 86 68 3.0 6.0 0.00 0.00 0.00 43 1017.3
20260901153603 87 66 2.0 6.0 0.00 0.00 0.00 43 1017.4
20260901153203 86 62 2.0 4.0 0.00 0.00 0.00 44 1017.4
20260901153014 86 58 2.0 4.0 0.00 0.00 0.00 44 1017.6
20260901152403 87 68 3.0 7.0 0.00 0.00 0.00 43 1017.4
20260901152003 87 79 3.0 7.0 0.00 0.00 0.00 44 1017.6
20260901151603 87 81 2.0 4.0 0.00 0.00 0.00 44 1017.6
20260901151203 87 82 3.0 7.0 0.00 0.00 0.00 43 1017.5
20260901150803 87 67 3.0 7.0 0.00 0.00 0.00 43 1017.4
20260901150403 87 81 3.0 7.0 0.00 0.00 0.00 43 1017.6
20260901150003 87 92 3.0 6.0 0.00 0.00 0.00 44 1017.5
20260901145603 87 98 3.0 8.0 0.00 0.00 0.00 44 1017.7
20260901145203 87 96 3.0 8.0 0.00 0.00 0.00 44 1017.7
20260901144803 87 76 3.0 7.0 0.00 0.00 0.00 44 1017.6
20260901144403 87 73 3.0 7.0 0.00 0.00 0.00 44 1017.6
20260901144003 87 75 4.0 7.0 0.00 0.00 0.00 45 1017.7
20260901143603 87 65 4.0 10.0 0.00 0.00 0.00 45 1017.8
20260901143203 86 55 4.0 10.0 0.00 0.00 0.00 46 1017.8
20260901142803 86 64 4.0 7.0 0.00 0.00 0.00 47 1017.9
20260901142403 87 79 4.0 8.0 0.00 0.00 0.00 46 1017.9
20260901142214 87 85 4.0 8.0 0.00 0.00 0.00 46 1017.9
20260901141603 87 84 4.0 8.0 0.00 0.00 0.00 46 1017.9
20260901141418 87 82 4.0 7.0 0.00 0.00 0.00 47 1018.0
20260901140803 87 70 4.0 10.0 0.00 0.00 0.00 48 1017.8
20260901140403 87 76 5.0 10.0 0.00 0.00 0.00 47 1017.9
20260901140003 87 87 4.0 7.0 0.00 0.00 0.00 47 1018.0
20260901135815 87 90 4.0 8.0 0.00 0.00 0.00 48 1018.0
20260901135203 86 91 4.0 10.0 0.00 0.00 0.00 48 1018.0
20260901134803 87 84 4.0 10.0 0.00 0.00 0.00 47 1018.1
20260901134403 87 81 4.0 10.0 0.00 0.00 0.00 48 1018.1
20260901134003 87 84 5.0 10.0 0.00 0.00 0.00 49 1018.0
20260901133603 87 80 4.0 10.0 0.00 0.00 0.00 50 1018.1
20260901133203 87 68 5.0 10.0 0.00 0.00 0.00 50 1018.2
20260901132803 86 67 5.0 10.0 0.00 0.00 0.00 48 1018.0
20260901132615 87 71 5.0 10.0 0.00 0.00 0.00 49 1018.1
20260901132214 87 81 5.0 8.0 0.00 0.00 0.00 49 1018.1
20260901131603 86 79 5.0 11.0 0.00 0.00 0.00 50 1018.4
20260901131203 87 78 5.0 11.0 0.00 0.00 0.00 52 1018.2
20260901131017 87 79 5.0 11.0 0.00 0.00 0.00 50 1018.2
20260901130617 87 75 5.0 10.0 0.00 0.00 0.00 50 1018.3
20260901130003 87 63 5.0 10.0 0.00 0.00 0.00 50 1018.2
20260901125603 87 66 5.0 10.0 0.00 0.00 0.00 50 1018.3
20260901125203 87 67 6.0 13.0 0.00 0.00 0.00 48 1018.2
20260901124803 86 70 5.0 13.0 0.00 0.00 0.00 49 1018.3
20260901124403 87 69 5.0 13.0 0.00 0.00 0.00 49 1018.2
20260901124213 87 71 4.0 10.0 0.00 0.00 0.00 50 1018.4
20260901123603 86 78 5.0 10.0 0.00 0.00 0.00 50 1018.4
20260901123203 86 81 6.0 10.0 0.00 0.00 0.00 49 1018.4
20260901123016 86 75 6.0 10.0 0.00 0.00 0.00 49 1018.5
20260901122403 86 66 6.0 13.0 0.00 0.00 0.00 50 1018.5
20260901122003 86 69 5.0 13.0 0.00 0.00 0.00 50 1018.7
20260901121814 87 70 5.0 11.0 0.00 0.00 0.00 50 1018.6
20260901121203 86 66 5.0 10.0 0.00 0.00 0.00 49 1018.6
20260901120803 86 74 5.0 10.0 0.00 0.00 0.00 49 1018.5
20260901120618 86 70 5.0 8.0 0.00 0.00 0.00 53 1018.7
20260901120003 86 65 5.0 10.0 0.00 0.00 0.00 50 1018.8
20260901115603 86 60 5.0 10.0 0.00 0.00 0.00 50 1018.6
20260901115203 86 58 5.0 8.0 0.00 0.00 0.00 50 1018.6
20260901114803 86 63 5.0 10.0 0.00 0.00 0.00 50 1018.7
20260901114403 86 68 5.0 10.0 0.00 0.00 0.00 52 1018.6
20260901114003 86 81 5.0 10.0 0.00 0.00 0.00 50 1018.7
20260901113603 86 86 5.0 8.0 0.00 0.00 0.00 51 1018.6
20260901113203 86 90 5.0 15.0 0.00 0.00 0.00 53 1018.7
20260901113017 85 83 6.0 15.0 0.00 0.00 0.00 54 1018.6
20260901112403 85 58 5.0 10.0 0.00 0.00 0.00 53 1018.7
20260901112003 85 63 6.0 13.0 0.00 0.00 0.00 56 1018.9
20260901111603 85 68 6.0 13.0 0.00 0.00 0.00 56 1018.6
20260901111203 85 64 7.0 16.0 0.00 0.00 0.00 56 1018.5
20260901110803 85 58 7.0 16.0 0.00 0.00 0.00 56 1018.6
20260901110613 85 58 7.0 16.0 0.00 0.00 0.00 57 1018.7
20260901110003 85 62 6.0 11.0 0.00 0.00 0.00 58 1018.6
20260901105603 85 61 6.0 10.0 0.00 0.00 0.00 57 1018.8
20260901105203 85 52 6.0 15.0 0.00 0.00 0.00 58 1018.8
20260901104803 85 48 6.0 15.0 0.00 0.00 0.00 60 1018.6
20260901104403 85 54 6.0 13.0 0.00 0.00 0.00 59 1018.6
20260901104003 85 55 6.0 13.0 0.00 0.00 0.00 59 1018.7
20260901103603 85 45 6.0 11.0 0.00 0.00 0.00 62 1018.6
20260901103203 84 44 7.0 14.0 0.00 0.00 0.00 62 1018.7
20260901102803 85 49 6.0 14.0 0.00 0.00 0.00 60 1018.6
20260901102403 85 55 6.0 11.0 0.00 0.00 0.00 61 1018.9
20260901102003 85 66 5.0 11.0 0.00 0.00 0.00 60 1018.9
20260901101815 85 63 5.0 11.0 0.00 0.00 0.00 59 1018.8
20260901101203 85 52 5.0 9.0 0.00 0.00 0.00 62 1018.9
20260901100803 84 46 6.0 11.0 0.00 0.00 0.00 62 1019.0
20260901100403 84 41 8.0 11.0 0.00 0.00 0.00 62 1018.9
20260901095603 84 49 6.0 11.0 0.00 0.00 0.00 62 1019.0
20260901095416 84 44 5.0 10.0 0.00 0.00 0.00 62 1018.8
20260901094803 84 31 5.0 10.0 0.00 0.00 0.00 63 1019.0
20260901094403 83 29 6.0 9.0 0.00 0.00 0.00 64 1019.0
20260901094003 83 27 6.0 10.0 0.00 0.00 0.00 65 1019.0
20260901093603 83 26 6.0 10.0 0.00 0.00 0.00 63 1019.0
20260901093203 82 28 6.0 10.0 0.00 0.00 0.00 63 1018.9
20260901092803 82 37 5.0 9.0 0.00 0.00 0.00 60 1019.2
20260901092403 82 42 5.0 8.0 0.00 0.00 0.00 61 1019.1
20260901092003 82 44 5.0 13.0 0.00 0.00 0.00 61 1019.0
20260901091603 82 42 5.0 13.0 0.00 0.00 0.00 60 1019.1
20260901091203 83 37 5.0 10.0 0.00 0.00 0.00 59 1019.2
20260901090803 83 39 5.0 10.0 0.00 0.00 0.00 58 1019.0
20260901090403 83 41 5.0 10.0 0.00 0.00 0.00 58 1018.9
20260901090003 82 45 5.0 10.0 0.00 0.00 0.00 58 1019.1
20260901085603 82 42 5.0 10.0 0.00 0.00 0.00 57 1019.0
20260901085203 82 39 5.0 9.0 0.00 0.00 0.00 58 1019.2
20260901085016 82 39 6.0 13.0 0.00 0.00 0.00 59 1019.1
20260901084616 82 39 6.0 13.0 0.00 0.00 0.00 58 1019.1
20260901084003 82 41 6.0 9.0 0.00 0.00 0.00 57 1019.0
20260901083815 82 39 5.0 8.0 0.00 0.00 0.00 58 1018.9
20260901083203 82 40 5.0 11.0 0.00 0.00 0.00 59 1019.0
20260901082803 81 50 6.0 11.0 0.00 0.00 0.00 59 1018.7
20260901082403 81 41 6.0 11.0 0.00 0.00 0.00 59 1018.9
20260901082003 81 28 6.0 9.0 0.00 0.00 0.00 60 1018.8
20260901081816 80 21 6.0 9.0 0.00 0.00 0.00 59 1018.8
20260901081416 80 24 6.0 11.0 0.00 0.00 0.00 58 1018.8
20260901080803 80 35 5.0 11.0 0.00 0.00 0.00 59 1018.6
20260901080403 81 39 5.0 10.0 0.00 0.00 0.00 58 1018.5
20260901080003 80 38 6.0 11.0 0.00 0.00 0.00 59 1018.7
20260901075813 80 38 6.0 11.0 0.00 0.00 0.00 59 1018.5
20260901075203 80 35 6.0 10.0 0.00 0.00 0.00 58 1018.5
20260901075017 80 38 6.0 10.0 0.00 0.00 0.00 59 1018.4
20260901074403 79 28 6.0 11.0 0.00 0.00 0.00 59 1018.4
20260901074003 79 28 6.0 11.0 0.00 0.00 0.00 59 1018.3
20260901073603 79 19 5.0 10.0 0.00 0.00 0.00 59 1018.2
20260901073203 79 17 5.0 9.0 0.00 0.00 0.00 58 1018.5
20260901073014 79 18 4.0 8.0 0.00 0.00 0.00 58 1018.2
20260901072403 79 21 4.0 9.0 0.00 0.00 0.00 60 1018.3
20260901072003 78 15 4.0 8.0 0.00 0.00 0.00 61 1018.0
20260901071603 78 8 4.0 8.0 0.00 0.00 0.00 59 1018.1
20260901071203 78 18 4.0 8.0 0.00 0.00 0.00 62 1018.2
20260901070803 77 19 4.0 9.0 0.00 0.00 0.00 62 1018.2
20260901070403 77 12 4.0 9.0 0.00 0.00 0.00 63 1018.1
20260901070003 77 11 4.0 7.0 0.00 0.00 0.00 64 1018.3
20260901065603 77 13 4.0 7.0 0.00 0.00 0.00 63 1018.0
20260901065203 76 15 3.0 6.0 0.00 0.00 0.00 64 1018.2
20260901064803 76 21 4.0 8.0 0.00 0.00 0.00 63 1018.1
20260901064617 76 20 3.0 8.0 0.00 0.00 0.00 64 1018.1
20260901064003 76 27 3.0 8.0 0.00 0.00 0.00 63 1017.9
20260901063816 75 19 3.0 7.0 0.00 0.00 0.00 64 1018.0